Погода Фролово

Погода Фролово : погода сейчас, прогноз погоды и архив. Всё, что Вы хотите узнать о погоде Фролово!

Поиск расширенной информации на нашем сайте:

Другие новости

Новости СМИ2

Главная страница сайта

Новости сайта

03.07.2017

Напоминаем, что на нашем специализированном сайте Метеоцентр.Азия вы можете получить высокодетализированные автоматические прогнозы погоды по пунктам России, СНГ и мира в авиационном формате (включающие направление и скорость ветра, видимость, явления погоды, количество и форму облачности, нижнюю и верхнюю границу облачности).


Погода Фролово - сегодня

Время (UTC), дата Ветер
(°,м/с) 
Видим.   Явления Облачность Т
(°С)
Тd
(°С)
f(%) Тe
(°С)
Pmin
(гПа)
dP
(гПа)
Po
(мм)
O2
(г/м3)
Тmin Tmax R s Состояние
почвы
03 19.05.18 160 (Ю) 10 км  {ливн. осадки}  6/0 средняя 
[Ac und]
+16.3 +15 92 +27  1013.2  -0.5  749  282  +15.6       
06 19.05.18 210 (ЮЗ) 10 км  {ливн. осадки}  ясно 
+22.1 +12.2 53 +26  1012.8  0.1  749  277           
09 19.05.18 230 (ЮЗ) 5-10{11}  10 км    8/8 1000 м 
[Cu med, cong]
+25.4 +10.2 38 +27  1012.2  -0.5  749  274           
12 19.05.18 230 (ЮЗ) 6-11{13}  10 км    ясно 
+27.5 +5.7 25 +28  1011.3  -0.8  748  273           
15 19.05.18 270 (З) 4{11}  10 км    8/5 600 м кучево-дожд., верхняя 
[Cb calv|Cs]
+25.8 +8.4 33 +26  1011.8  0.4  749  274    +27.7       
18 19.05.18 тихо () {12}  20000 м    8/3 1000 м верхняя 
[Cu med, cong|Cs]
+16.4 +10.7 69 +18  1013.8  1.5  750  283           
21 19.05.18 тихо ()   20000 м    ясно 
+14.2 +10 76 +15  1013.8  750  285           
00 20.05.18 090 (В) 20000 м    ясно 
+13.5 +9.3 76 +15  1013.9  750  286           
03 20.05.18 тихо ()   10 км    ясно 
+17 +11.5 70 +20  1014.2  0.5  750  282  +12.3        сухая 
06 20.05.18 тихо ()   10 км    6/0 верхняя 
[Cs]
+23.7 +12.8 50 +29  1014.5  0.6  751  276           
09 20.05.18 220 (ЮЗ) 10 км    8/8 600 м кучево-дожд. 
[Cb cap]
+25.4 +10.5 39 +27  1014.3  0.1  750  275           
12 20.05.18 010 (С) 1{13}  10 км  {гроза, ливн. осадки}  9/9 600 м 
[Sc]
+22.1 +13.4 58 +28  1014.5  0.2  751  277           
15 20.05.18 040 (СВ) 10 км    8/4 600 м верхняя 
[Cu hum|Cs]
+21.4 +13.4 60 +27  1013.9  -0.7  750  278    +26.8     
18 20.05.18 030 (СВ) 20000 м    9/8 600 м верхняя 
[Cu hum|Cs]
+18.5 +13.8 74 +27  1015.4  1.4  751  281           
21 20.05.18 080 (В) 20000 м    9/0 средняя 
[Ac trans]
+18.1 +12.8 71 +24  1014.7  -0.7  751  281           
00 21.05.18 090 (В) 20000 м    9/0 средняя 
[Ac As]
+17.2 +12.5 74 +23  1014.4  -0.4  750  282           
03 21.05.18 090 (В) 10 км    9/0 верхняя 
[Cs]
+17.6 +12.5 72 +23  1015.3  751  282  +16.7        сухая 
06 21.05.18 040 (СВ) 10 км  в посл. час ливневой дождь  9/9 600 м 
[Sc]
+18.9 +14.8 77 +28  1016.3  752  280           
09 21.05.18 020 (С) 10 км    8/0 средняя, верхняя 
[Ac und|Cs]
+24.5 +14.9 55 +33  1016.1  0.1  752  275           
12 21.05.18 тихо ()   10 км    10/4 1000 м средняя 
[Cu hum|Ac As]
+26.5 +9.1 33 +27  1016  752  275           
15 21.05.18 300 (СЗ) 10 км    9/9 600 м 
[Sc]
+23.7 +17 66 +36  1016.1  752  275    +27.8  0.3     
18 21.05.18 040 (СВ) 20000 м    10/3 1000 м средняя 
[Cu hum|Ac As]
+21.5 +13.1 59 +27  1018.4  2.2  753  279           
21 21.05.18 030 (СВ) 20000 м    10/0 средняя 
[Ac As]
+18.9 +12.5 66 +25  1019.1  0.5  754  282           
00 22.05.18 070 (В) 10 км  слаб. ливневой дождь  10/10 300 м кучево-дожд. 
[Cb calv]
+16.9 +13.6 81 +23  1019.9  0.7  754  283           
03 22.05.18 060 (СВ) 10 км  в посл. час ливневой дождь  9/9 600 м 
[Sc]
+16.4 +12.8 79 +21  1020.7  0.8  755  284  +16.3       
Время (UTC), дата Ветер
(°,м/с) 
Видим.   Явления Облачность Т
(°С)
Тd
(°С)
f(%) Тe
(°С)
Pmin
(гПа)
dP
(гПа)
Po
(мм)
O2
(г/м3)
Тmin Tmax R s Состояние
почвы

Для получения пояснительной информации подведите курсор к названию столбца.

ПОГОДА Фролово - архив

Всё, что Вы хотите узнать о погоде Фролово - удобно и подробно!

Выберите нужную дату (начиная с 1 января 2015* года) и нажмите кнопку "Найти".
Будут отображены архивные сводки погоды по пункту Фролово, начиная с указанной даты.


Отображать данные в формате CSV (для использования в таблицах Excel)


Внимание! Наш архив погоды предназначен исключительно для личного некоммерческого использования в познавательных целях. Если Вам необходимы официальные справки о состоянии погоды (для производственных, юридических, коммерческих и т.п. целей), обращайтесь в органы Росгидромета.

*Примечание: данная дата относится к архиву по метеостанциям СССР (Россия, СНГ, Балтия).
Архив по метеостанциям Зарубежной Европы и Азии (кроме Китая) хранится 10 дней, по другим регионам земного шара (Китай, Африка, Америка, Австралия, Океания) - 1 день.

Фролово - район местоположения метеостанции


Название, широта, долгота, высота метеостанции:
Фролово 49.8°ш. 43.7°д. 119 м над ур. моря [Российская Федерация]

Дополнительная информация

В oтличие oт бoльшинства пoгoдных сайтoв мы публикуем пoдрoбную метеoинфoрмацию в детальнoм прoфессиoнальнoм фoрмате.

Характеристики температуры и влажнoсти вoздуха измеряются на высoте 2 м в тени вдали oт зданий и деревьев.
Скoрoсть ветра измеряется на высoте 10 м (на урoвне рoста челoвека скoрoсть ветра ниже в 1.5-2 раза). Если метеoстанция нахoдится в гoрoде или в лесу, тo скoрoсть ветра занижена на 2-4 м/с пo сравнению с oткрытым местoм. Скoрoсть ветра над акватoриями крупных рек и oзёр, а также на вершинах хoлмoв на 2-5 м/с выше, чем в oбычных услoвиях.
Атмoсфернoе давление в разных тoчках местнoсти мoжет значительнo oтличаться oт давления на метеoстанции, в зависимoсти oт услoвий рельефа (при пoдъёме на 10 м давление пoнижается примернo на 1 мм рт.ст.).